Marshall, TX

1:51 AM CST on December 16, 2019 (GMT -0600)
Harrison County

Weather History for KASL - October, 2019

Change the Weather History Date:

Thursday, October 24, 2019

  Actual Average (WUND) Record (WUND)
Temperature  
Mean Temperature 62 °F -  
Max Temperature 76 °F - - (-1)
Min Temperature 47 °F - - (-1)
Degree Days  
Heating Degree Days 4    
Growing Degree Days 12 (Base 50)    
Moisture  
Dew Point 47 °F    
Average Humidity 63    
Maximum Humidity 94    
Minimum Humidity 31    
Precipitation  
Precipitation 0.00 in - - ()
Sea Level Pressure  
Sea Level Pressure 30.08 in    
Wind  
Wind Speed 2 mph (SE)    
Max Wind Speed 12 mph    
Max Gust Speed -    
Visibility 10 miles    
Events      
Averages and records for this station are not official NWS values.
T = Trace of Precipitation, MM = Missing Value Source: NWS Daily Summary

Daily Weather History Graph

Daily Weather History Graph

Search for Another Location

Airport or City:

Astronomy

Oct. 24, 2019 Rise Set
Actual Time 7:27 AM CDT 6:34 PM CDT
Civil Twilight 7:02 AM CDT 6:59 PM CDT
Nautical Twilight 6:34 AM CDT 7:28 PM CDT
Astronomical Twilight 6:05 AM CDT 7:56 PM CDT
Moon 3:19 AM CDT (10/24) 4:44 PM CDT (10/24)
Length of Visible Light 11h 56m
Length of Day
11h 06m
Waning Crescent, 16% of the Moon is Illuminated
Oct 24
Waning Crescent
Oct 27
New
Nov 4
First Quarter
Nov 12
Full
Nov 19
Last Quarter

Hourly Weather History & Observations

Time (CDT) Temp. Dew Point Humidity Pressure Visibility Wind Dir Wind Speed Gust Speed Precip Events Conditions
12:15 AM 54.9 °F 45.9 °F 72% 30.11 in 10.0 mi Calm Calm - N/A   Clear
12:35 AM 54.9 °F 45.7 °F 71% 30.11 in 10.0 mi Calm Calm - N/A   Clear
12:55 AM 54.5 °F 46.4 °F 74% 30.10 in 10.0 mi Calm Calm - N/A   Clear
1:15 AM 52.9 °F 45.5 °F 76% 30.10 in 10.0 mi Calm Calm - N/A   Clear
1:35 AM 50.0 °F 46.8 °F 89% 30.10 in 10.0 mi Calm Calm - N/A   Clear
2:15 AM 50.0 °F 46.4 °F 87% 30.09 in 10.0 mi Calm Calm - N/A   Clear
2:35 AM 51.3 °F 46.8 °F 85% 30.08 in 10.0 mi Calm Calm - N/A   Clear
2:55 AM 50.0 °F 46.0 °F 86% 30.08 in 10.0 mi SSE 4.6 mph - N/A   Clear
3:15 AM 51.3 °F 47.1 °F 86% 30.08 in 10.0 mi South 3.5 mph - N/A   Clear
3:35 AM 50.0 °F 45.9 °F 86% 30.08 in 10.0 mi Calm Calm - N/A   Clear
3:55 AM 52.7 °F 48.2 °F 85% 30.07 in 10.0 mi Calm Calm - N/A   Clear
4:35 AM 51.3 °F 47.3 °F 86% 30.08 in 10.0 mi South 3.5 mph - N/A   Clear
4:55 AM 50.0 °F 46.6 °F 88% 30.08 in 10.0 mi SSE 3.5 mph - N/A   Clear
5:15 AM 50.0 °F 46.8 °F 89% 30.08 in 10.0 mi SSE 3.5 mph - N/A   Clear
5:35 AM 50.0 °F 46.8 °F 89% 30.09 in 10.0 mi Calm Calm - N/A   Clear
5:55 AM 50.0 °F 46.9 °F 89% 30.09 in 10.0 mi Calm Calm - N/A   Clear
6:15 AM 50.0 °F 46.9 °F 89% 30.09 in 10.0 mi Calm Calm - N/A   Clear
6:35 AM 50.0 °F 47.3 °F 90% 30.09 in 10.0 mi Calm Calm - N/A   Clear
6:55 AM 47.5 °F 45.5 °F 93% 30.10 in 10.0 mi Calm Calm - N/A   Clear
7:15 AM 47.5 °F 45.5 °F 93% 30.10 in 10.0 mi Calm Calm - N/A   Mostly Cloudy
7:35 AM 50.0 °F 48.2 °F 94% 30.11 in 10.0 mi Calm Calm - N/A   Overcast
7:55 AM 50.0 °F 47.5 °F 91% 30.11 in 10.0 mi Calm Calm - N/A   Overcast
8:15 AM 52.5 °F 49.3 °F 89% 30.13 in 10.0 mi Calm Calm - N/A   Mostly Cloudy
8:35 AM 52.7 °F 49.1 °F 88% 30.14 in 10.0 mi Calm Calm - N/A   Mostly Cloudy
8:55 AM 54.9 °F 49.3 °F 81% 30.14 in 10.0 mi Calm Calm - N/A   Scattered Clouds
9:15 AM 57.0 °F 49.3 °F 75% 30.15 in 10.0 mi Calm Calm - N/A   Clear
9:35 AM 59.2 °F 49.6 °F 71% 30.15 in 10.0 mi South 4.6 mph - N/A   Scattered Clouds
9:55 AM 62.6 °F 49.6 °F 63% 30.15 in 10.0 mi SSE 4.6 mph - N/A   Scattered Clouds
10:15 AM 64.9 °F 50.0 °F 58% 30.15 in 10.0 mi South 6.9 mph - N/A   Scattered Clouds
10:35 AM 64.9 °F 46.4 °F 51% 30.14 in 10.0 mi South 8.1 mph - N/A   Clear
10:55 AM 64.9 °F 45.1 °F 49% 30.14 in 10.0 mi South 6.9 mph - N/A   Scattered Clouds
11:15 AM 70.0 °F 47.5 °F 45% 30.13 in 10.0 mi SSE 6.9 mph - N/A   Scattered Clouds
11:35 AM 70.0 °F 45.0 °F 41% 30.12 in 10.0 mi SSW 11.5 mph - N/A   Clear
11:55 AM 70.0 °F 43.3 °F 38% 30.11 in 10.0 mi South 11.5 mph - N/A   Clear
12:15 PM 70.0 °F 43.0 °F 38% 30.11 in 10.0 mi SSE 9.2 mph - N/A   Clear
12:35 PM 72.5 °F 45.3 °F 38% 30.10 in 10.0 mi South 6.9 mph - N/A   Clear
12:55 PM 72.5 °F 43.0 °F 35% 30.09 in 10.0 mi SSE 6.9 mph - N/A   Clear
1:15 PM 72.5 °F 42.8 °F 34% 30.08 in 10.0 mi South 6.9 mph - N/A   Clear
1:35 PM 73.2 °F 43.0 °F 34% 30.06 in 10.0 mi South 8.1 mph - N/A   Clear
1:55 PM 75.2 °F 42.6 °F 31% 30.06 in 10.0 mi SSE 5.8 mph - N/A   Clear
2:15 PM 75.2 °F 42.6 °F 31% 30.04 in 10.0 mi South 8.1 mph - N/A   Clear
2:35 PM 75.2 °F 42.8 °F 31% 30.04 in 10.0 mi SE 4.6 mph - N/A   Clear
2:55 PM 76.3 °F 44.1 °F 32% 30.02 in 10.0 mi SE 5.8 mph - N/A   Clear
3:15 PM 76.3 °F 43.7 °F 31% 30.02 in 10.0 mi SE 5.8 mph - N/A   Clear
3:35 PM 76.1 °F 43.9 °F 32% 30.02 in 10.0 mi SSE 6.9 mph - N/A   Clear
3:55 PM 76.3 °F 43.7 °F 31% 30.01 in 10.0 mi SE 5.8 mph - N/A   Clear
4:15 PM 76.1 °F 43.5 °F 31% 30.01 in 10.0 mi SSE 4.6 mph - N/A   Clear
4:35 PM 75.2 °F 43.5 °F 32% 30.01 in 10.0 mi SSE 4.6 mph - N/A   Clear
4:55 PM 75.2 °F 45.3 °F 34% 30.01 in 10.0 mi East 5.8 mph - N/A   Clear
5:15 PM 75.2 °F 46.4 °F 36% 30.00 in 10.0 mi ESE 4.6 mph - N/A   Clear
5:35 PM 75.2 °F 48.2 °F 38% 30.00 in 10.0 mi East 5.8 mph - N/A   Clear
5:55 PM 72.5 °F 48.0 °F 42% 30.00 in 10.0 mi East 3.5 mph - N/A   Clear
6:15 PM 70.0 °F 48.4 °F 46% 30.00 in 10.0 mi East 4.6 mph - N/A   Clear
6:35 PM 68.5 °F 50.9 °F 53% 30.01 in 10.0 mi Calm Calm - N/A   Clear
6:55 PM 64.9 °F 52.3 °F 64% 30.03 in 10.0 mi Calm Calm - N/A   Clear
7:15 PM 60.4 °F 51.3 °F 72% 30.04 in 10.0 mi Calm Calm - N/A   Clear
7:35 PM 59.5 °F 52.3 °F 77% 30.06 in 10.0 mi Calm Calm - N/A   Clear
7:55 PM 57.6 °F 51.3 °F 79% 30.08 in 10.0 mi North 5.8 mph - N/A   Clear
8:15 PM 58.5 °F 50.2 °F 74% 30.09 in 10.0 mi NNE 4.6 mph - N/A   Clear
8:35 PM 62.6 °F 50.9 °F 66% 30.08 in 10.0 mi NNE 4.6 mph - N/A   Scattered Clouds
8:55 PM 64.6 °F 52.5 °F 65% 30.08 in 10.0 mi NNE 5.8 mph - N/A   Scattered Clouds
9:15 PM 64.0 °F 51.6 °F 64% 30.08 in 10.0 mi ENE 3.5 mph - N/A   Scattered Clouds
9:35 PM 62.8 °F 50.4 °F 64% 30.09 in 10.0 mi NNE 3.5 mph - N/A   Clear
10:15 PM 62.6 °F 50.4 °F 64% 30.08 in 10.0 mi East 3.5 mph - N/A   Clear
10:35 PM 62.6 °F 49.8 °F 63% 30.09 in 10.0 mi ENE 3.5 mph - N/A   Clear
10:55 PM 60.8 °F 49.1 °F 65% 30.09 in 10.0 mi Calm Calm - N/A   Scattered Clouds
11:15 PM 62.6 °F 50.2 °F 64% 30.09 in 10.0 mi East 4.6 mph - N/A   Scattered Clouds
11:35 PM 60.1 °F 48.9 °F 67% 30.08 in 10.0 mi East 6.9 mph - N/A   Clear
11:55 PM 61.2 °F 49.6 °F 66% 30.08 in 10.0 mi East 5.8 mph - N/A   Clear